Vertical_Velocity
-8 -6 -1 -1 -3 -2 -3 -5 -4 -1 -4 0 -0 -2 -2 -1 -0 1 1 3 3 3 2 2 2 1 1 2 1 2 2 2 0 -0 4 3 -4 -0
-5 -7 -2 -1 -0 -2 -3 -4 -1 -1 -2 -2 -1 -2 -2 -2 -2 -1 -0 2 3 4 4 5 4 3 2 2 2 2 1 1 2 3 4 1 2 -1
-6 -4 -1 -4 -1 -3 -4 -2 -0 1 -2 -2 -1 -1 -1 -0 -1 -1 1 3 2 2 3 5 3 3 4 3 2 -0 3 0 -2 -3 1 1 1 4
-4 -3 -3 -0 -1 -3 -2 -3 0 1 -0 0 1 1 0 -1 0 0 2 3 3 2 3 2 2 2 4 2 1 0 -1 3 5 3 -1 -1 -2 -3
-3 -2 -2 -3 -1 -4 -1 -1 -0 1 1 1 1 1 1 1 1 -0 1 1 2 2 1 0 0 1 -1 1 3 5 0 -1 4 2 3 3 2 -2
-2 -5 -2 -2 -3 -3 -1 0 0 0 3 1 0 1 2 1 1 2 4 4 3 2 2 -0 -1 1 1 1 -0 1 3 0 -2 -0 -2 -1 -3 -3
-1 -2 -2 -3 -1 -2 -2 -2 1 1 3 2 -0 1 1 0 -1 -3 -2 -1 -2 -0 2 -1 -0 -2 -1 -1 -1 -2 -1 1 1 -3 -1 -1 1 4
-2 -1 -4 -3 -2 -1 -2 0 -1 -0 2 3 1 1 0 1 1 -0 -1 -4 -8 -5 -4 -2 -1 -3 -1 1 0 -2 -2 -1 -2 -1 -4 -0 4 -3
-1 -3 -3 -2 -0 -0 -0 0 2 -1 2 3 1 0 1 -1 -3 -4 -1 -1 -1 -1 -6 -4 -2 -3 -3 -5 -2 1 1 -0 2 2 -2 -5 2 2
0 -3 -3 -1 0 -2 -1 -0 2 2 -1 1 0 2 2 -1 -1 0 -1 -1 -2 -1 2 -2 -6 -3 -3 -2 -3 -2 -3 -4 -1 1 0 -2 -3 4
1 -2 -1 -0 0 -2 -1 -1 -1 2 1 1 0 0 1 1 -2 -3 -2 -6 -8 -7 -7 -2 -6 -8 -6 -4 -5 -3 -3 -3 -4 -5 -4 -3 -2 -4
-3 -3 -3 -0 -0 -1 -1 -1 1 0 1 1 2 1 1 -0 1 -1 -4 -1 -4 -5 -4 -4 -8 -7 -8 -8 -4 -9 -8 -3 -4 -5 -6 -4 -3 -5
-3 -2 -3 -0 -0 -1 -0 -0 -0 1 2 0 -0 -1 -4 -1 -4 0 -5 -1 -2 -5 -3 -7 -8 -7 -10 -3 -15 -7 -8 -10 -7 -8 -6 -6 -5 -4
-2 -2 -1 -0 0 -1 -0 -0 -1 0 1 1 -0 -0 -2 -3 -2 -1 -3 -6 -7 -5 -5 -5 -6 -5 -6 -8 -2 -13 -7 -8 -7 -6 -7 -7 -4 -2
-4 -2 -1 -1 1 -1 0 -0 -1 -1 1 2 -0 0 -3 -3 -3 -4 2 -0 -6 -6 -5 -5 -7 -6 -4 -3 -4 -4 -1 -13 -5 -4 -2 -2 -4 -3
-3 -2 -1 -0 1 -0 -1 1 -0 -0 0 1 0 -0 -3 -4 -3 -4 -5 -5 -4 -9 -4 -4 -6 -5 -5 -4 -1 -5 -6 -1 -6 -5 -2 1 -1 -1
-3 -1 -1 0 -0 1 -0 -0 -0 0 0 -1 -0 -2 -2 -4 -4 -3 -3 -3 -5 -6 -9 -10 -6 -3 -1 0 -4 -7 -1 -2 -1 -0 -3 -1 0 -1
-0 -0 0 1 0 0 -1 0 0 0 0 -0 -1 -3 -3 -2 -3 -4 -3 -3 -6 -6 -5 -3 -5 -10 -11 3 5 -0 -3 -2 -0 0 1 1 -1 0
1 1 1 0 -0 1 1 -1 -1 -1 1 0 -1 -1 -2 -2 -3 -5 -6 -5 -4 -4 -3 -3 -3 -0 -2 -5 -7 0 3 -1 -2 -1 1 -1 3 -0
-0 -0 1 1 -1 -1 -1 0 -1 -1 0 0 -1 -2 -3 -4 -3 -3 -3 -5 -6 -4 -4 -4 -3 -1 0 0 -0 -8 0 1 -1 -1 -1 -2 -1 5
1 1 1 -0 -1 -2 -1 -1 -1 -2 -0 0 -0 -1 -2 -3 -3 -2 -4 -4 -3 -2 -2 -3 -3 -1 -1 -1 -2 -3 -6 3 2 0 -1 0 -2 -4
0 -1 -2 -0 -0 -1 -1 -1 1 0 -0 -1 -0 -1 -2 -2 -2 -3 -3 -2 -3 -3 -2 -1 -2 -2 -1 -1 -2 -0 -3 -7 -0 2 1 1 2 1
-1 -1 -0 -0 -1 -0 -0 -0 -1 -0 0 -1 -1 -2 -1 -2 -1 -2 -2 -2 -4 -3 -2 -2 -2 -4 -0 -1 -2 -2 -1 -3 -0 -6 -4 1 1 2
Height
5603 5598 5593 5589 5583 5578 5573 5567 5562 5557 5553 5549 5546 5544 5541 5537 5533 5530 5527 5524 5523 5523 5524 5526 5528 5531 5535 5539 5544 5549 5554 5561 5568 5574 5580 5587 5596 5603
5593 5589 5585 5581 5576 5571 5566 5561 5556 5552 5548 5546 5543 5540 5538 5534 5531 5528 5525 5523 5522 5522 5522 5522 5524 5526 5529 5532 5535 5539 5544 5549 5556 5562 5566 5573 5580 5588
5584 5581 5577 5573 5568 5563 5559 5555 5550 5547 5544 5542 5540 5537 5535 5532 5529 5527 5525 5523 5521 5520 5520 5519 5520 5521 5523 5525 5528 5531 5535 5539 5544 5549 5553 5558 5565 5572
5575 5572 5569 5564 5561 5556 5552 5548 5545 5541 5539 5537 5536 5534 5531 5529 5526 5524 5522 5520 5519 5518 5517 5516 5517 5517 5518 5519 5521 5523 5526 5530 5534 5538 5541 5547 5551 5557
5567 5564 5560 5557 5552 5548 5544 5542 5539 5536 5533 5532 5531 5529 5527 5525 5523 5520 5518 5517 5515 5513 5512 5511 5511 5511 5512 5514 5515 5517 5519 5521 5525 5527 5530 5534 5539 5544
5559 5555 5551 5548 5544 5539 5536 5534 5532 5530 5528 5526 5524 5523 5522 5520 5517 5515 5514 5511 5510 5508 5507 5506 5505 5505 5505 5506 5506 5508 5510 5511 5514 5517 5520 5524 5528 5532
5550 5546 5543 5540 5535 5531 5528 5527 5524 5523 5521 5519 5517 5516 5515 5513 5510 5507 5505 5504 5502 5500 5499 5498 5498 5497 5497 5496 5497 5497 5499 5500 5502 5504 5508 5512 5515 5519
5541 5538 5535 5532 5527 5523 5521 5519 5518 5515 5514 5512 5510 5509 5507 5506 5505 5502 5500 5497 5493 5491 5489 5489 5488 5487 5487 5487 5487 5486 5487 5488 5490 5492 5494 5497 5499 5504
5531 5528 5526 5522 5519 5516 5513 5510 5509 5508 5507 5505 5502 5501 5499 5498 5497 5495 5493 5491 5488 5486 5482 5479 5478 5477 5476 5475 5475 5475 5475 5475 5476 5478 5480 5483 5484 5488
5523 5520 5516 5513 5510 5507 5503 5501 5500 5500 5500 5498 5495 5494 5493 5491 5489 5488 5485 5482 5479 5476 5474 5471 5466 5464 5463 5462 5461 5460 5459 5459 5460 5461 5463 5465 5468 5470
5514 5511 5507 5504 5502 5498 5495 5493 5492 5491 5491 5490 5488 5486 5485 5484 5482 5478 5475 5472 5467 5464 5461 5458 5455 5451 5449 5446 5444 5442 5441 5441 5441 5442 5443 5446 5448 5451
5504 5501 5498 5496 5493 5490 5487 5485 5484 5484 5483 5482 5480 5479 5477 5475 5472 5469 5465 5462 5457 5453 5448 5444 5439 5435 5431 5426 5423 5420 5419 5418 5417 5418 5419 5422 5425 5429
5495 5491 5489 5487 5484 5482 5479 5478 5476 5476 5475 5474 5472 5470 5467 5465 5462 5458 5453 5449 5444 5439 5434 5429 5424 5418 5412 5409 5402 5399 5396 5392 5390 5388 5390 5393 5397 5403
5486 5483 5480 5478 5476 5473 5471 5470 5468 5467 5467 5466 5463 5461 5457 5453 5450 5446 5441 5436 5431 5425 5420 5413 5407 5401 5395 5390 5387 5382 5378 5375 5372 5369 5366 5366 5369 5372
5477 5474 5472 5470 5468 5465 5463 5462 5461 5459 5458 5457 5454 5451 5447 5442 5438 5434 5430 5424 5417 5412 5406 5399 5392 5387 5382 5377 5373 5369 5365 5360 5357 5355 5354 5354 5354 5356
5469 5466 5464 5462 5460 5458 5456 5455 5453 5451 5450 5448 5445 5441 5436 5432 5428 5422 5417 5411 5404 5397 5392 5385 5380 5374 5369 5364 5360 5356 5353 5350 5346 5345 5345 5345 5345 5345
5461 5458 5456 5454 5452 5450 5449 5447 5445 5444 5441 5438 5434 5431 5426 5421 5416 5411 5406 5400 5393 5386 5378 5372 5367 5362 5357 5353 5348 5344 5341 5339 5337 5336 5335 5335 5335 5334
5453 5450 5448 5446 5444 5442 5441 5439 5436 5434 5432 5429 5425 5421 5416 5410 5405 5399 5394 5389 5382 5375 5368 5361 5355 5348 5344 5342 5338 5334 5330 5328 5326 5325 5324 5324 5324 5324
5444 5442 5440 5437 5436 5434 5433 5431 5428 5426 5423 5420 5415 5410 5405 5400 5394 5389 5383 5377 5370 5364 5358 5351 5345 5340 5335 5330 5325 5322 5321 5318 5315 5313 5312 5312 5313 5313
5436 5434 5431 5429 5427 5425 5424 5422 5419 5416 5414 5410 5405 5400 5395 5389 5384 5378 5372 5366 5360 5353 5347 5341 5335 5330 5325 5321 5316 5311 5308 5307 5305 5303 5301 5300 5300 5301
5427 5425 5422 5420 5419 5417 5415 5413 5410 5407 5404 5400 5395 5389 5384 5378 5373 5367 5362 5355 5349 5342 5336 5330 5324 5319 5314 5309 5305 5301 5297 5295 5294 5293 5290 5289 5287 5287
5418 5416 5415 5413 5411 5409 5407 5404 5402 5398 5394 5389 5384 5379 5373 5367 5361 5356 5350 5344 5338 5331 5325 5319 5313 5307 5302 5297 5293 5290 5285 5281 5280 5280 5279 5277 5277 5275
5411 5409 5407 5405 5403 5401 5398 5396 5392 5388 5383 5378 5373 5367 5361 5355 5350 5344 5338 5332 5325 5319 5313 5306 5300 5294 5289 5284 5280 5276 5273 5270 5266 5262 5262 5263 5262 5262